Time,TemperatureF,DewpointF,PressureIn,WindDirection,WindDirectionDegrees,WindSpeedMPH,WindSpeedGustMPH,Humidity,HourlyPrecipIn,Conditions,Clouds,dailyrainin,SoftwareType,DateUTC
2013-05-30 00:03:00,54.8,45.2,29.76,West,272,0.0,0.0,70,0.00,,,0.00,Wunderground v.1.15,2013-05-30 07:03:00,
2013-05-30 00:12:00,54.6,45.0,29.76,ENE,72,0.0,0.0,70,0.00,,,0.00,Wunderground v.1.15,2013-05-30 07:12:00,
2013-05-30 00:22:00,54.5,44.9,29.75,ENE,75,0.0,0.0,70,0.00,,,0.00,Wunderground v.1.15,2013-05-30 07:22:00,
2013-05-30 00:32:00,54.2,45.0,29.75,NNE,12,0.0,0.0,71,0.00,,,0.00,Wunderground v.1.15,2013-05-30 07:32:00,
2013-05-30 00:42:00,53.9,44.7,29.74,ESE,106,0.0,3.0,71,0.00,,,0.00,Wunderground v.1.15,2013-05-30 07:42:00,
2013-05-30 00:52:00,53.8,45.0,29.74,ESE,115,0.0,1.0,72,0.00,,,0.00,Wunderground v.1.15,2013-05-30 07:52:00,
2013-05-30 01:02:00,53.7,44.9,29.74,ENE,69,0.0,2.0,72,0.00,,,0.00,Wunderground v.1.15,2013-05-30 08:02:00,
2013-05-30 01:12:00,53.7,44.9,29.74,NNE,26,0.0,0.0,72,0.00,,,0.00,Wunderground v.1.15,2013-05-30 08:12:00,
2013-05-30 01:22:00,53.7,44.9,29.73,WNW,282,0.0,0.0,72,0.00,,,0.00,Wunderground v.1.15,2013-05-30 08:22:00,
2013-05-30 01:27:00,53.6,44.8,29.74,WNW,292,0.0,0.0,72,0.00,,,0.00,Wunderground v.1.15,2013-05-30 08:27:00,
2013-05-30 01:37:00,53.6,44.8,29.74,WNW,290,0.0,0.0,72,0.00,,,0.00,Wunderground v.1.15,2013-05-30 08:37:00,
2013-05-30 01:47:00,53.4,44.6,29.74,WNW,290,0.0,0.0,72,0.00,,,0.00,Wunderground v.1.15,2013-05-30 08:47:00,
2013-05-30 01:57:00,53.0,44.2,29.74,SE,126,0.0,0.0,72,0.00,,,0.00,Wunderground v.1.15,2013-05-30 08:57:00,
2013-05-30 02:02:00,52.9,44.1,29.73,SE,126,0.0,0.0,72,0.00,,,0.00,Wunderground v.1.15,2013-05-30 09:02:00,
2013-05-30 02:12:00,52.4,44.0,29.73,SE,126,0.0,0.0,73,0.00,,,0.00,Wunderground v.1.15,2013-05-30 09:12:00,
2013-05-30 02:22:00,52.1,44.1,29.72,West,263,0.0,0.0,74,0.00,,,0.00,Wunderground v.1.15,2013-05-30 09:22:00,
2013-05-30 02:32:00,51.8,43.8,29.72,WSW,244,0.0,0.0,74,0.00,,,0.00,Wunderground v.1.15,2013-05-30 09:32:00,
2013-05-30 02:42:00,51.6,43.6,29.72,South,181,0.0,0.0,74,0.00,,,0.00,Wunderground v.1.15,2013-05-30 09:42:00,
2013-05-30 02:52:00,51.5,43.8,29.72,South,181,0.0,0.0,75,0.00,,,0.00,Wunderground v.1.15,2013-05-30 09:52:00,
2013-05-30 02:58:00,51.4,43.7,29.72,SSE,164,0.0,0.0,75,0.00,,,0.00,Wunderground v.1.15,2013-05-30 09:58:00,
2013-05-30 03:03:00,51.3,43.6,29.72,SSE,164,0.0,0.0,75,0.00,,,0.00,Wunderground v.1.15,2013-05-30 10:03:00,
2013-05-30 03:08:00,51.3,43.6,29.72,SSE,164,0.0,0.0,75,0.00,,,0.00,Wunderground v.1.15,2013-05-30 10:08:00,
2013-05-30 03:18:00,51.2,43.5,29.73,East,97,0.0,0.0,75,0.00,,,0.00,Wunderground v.1.15,2013-05-30 10:18:00,
2013-05-30 03:28:00,51.0,43.0,29.73,East,97,0.0,0.0,74,0.00,,,0.00,Wunderground v.1.15,2013-05-30 10:28:00,
2013-05-30 03:38:00,50.9,43.3,29.73,WNW,284,0.0,0.0,75,0.00,,,0.00,Wunderground v.1.15,2013-05-30 10:38:00,
2013-05-30 03:48:00,50.7,43.1,29.73,NE,36,0.0,0.0,75,0.00,,,0.00,Wunderground v.1.15,2013-05-30 10:48:00,
2013-05-30 03:58:00,50.5,42.9,29.73,NE,37,0.0,0.0,75,0.00,,,0.00,Wunderground v.1.15,2013-05-30 10:58:00,
2013-05-30 04:03:00,50.4,42.8,29.73,NE,37,0.0,0.0,75,0.00,,,0.00,Wunderground v.1.15,2013-05-30 11:03:00,
2013-05-30 04:13:00,50.3,42.3,29.74,NE,49,0.0,0.0,74,0.00,,,0.00,Wunderground v.1.15,2013-05-30 11:13:00,
2013-05-30 04:23:00,50.3,42.7,29.73,NE,42,0.0,0.0,75,0.00,,,0.00,Wunderground v.1.15,2013-05-30 11:23:00,
2013-05-30 04:32:00,50.4,42.8,29.73,NE,38,0.0,0.0,75,0.00,,,0.00,Wunderground v.1.15,2013-05-30 11:32:00,
2013-05-30 04:38:00,50.5,42.9,29.73,NE,38,0.0,0.0,75,0.00,,,0.00,Wunderground v.1.15,2013-05-30 11:38:00,
2013-05-30 04:47:00,50.7,43.1,29.73,NE,38,0.0,0.0,75,0.00,,,0.00,Wunderground v.1.15,2013-05-30 11:47:00,
2013-05-30 04:58:00,50.7,43.1,29.73,East,90,0.0,0.0,75,0.00,,,0.00,Wunderground v.1.15,2013-05-30 11:58:00,
2013-05-30 05:03:00,50.7,43.1,29.74,East,90,0.0,0.0,75,0.00,,,0.00,Wunderground v.1.15,2013-05-30 12:03:00,
2013-05-30 05:12:00,50.5,42.9,29.74,NE,54,0.0,0.0,75,0.00,,,0.00,Wunderground v.1.15,2013-05-30 12:12:00,
2013-05-30 05:18:00,50.4,42.8,29.74,ENE,71,0.0,0.0,75,0.00,,,0.00,Wunderground v.1.15,2013-05-30 12:18:00,
2013-05-30 05:27:00,50.1,42.5,29.74,NE,53,0.0,2.0,75,0.00,,,0.00,Wunderground v.1.15,2013-05-30 12:27:00,
2013-05-30 05:37:00,49.8,42.2,29.74,NE,55,0.0,0.0,75,0.00,,,0.00,Wunderground v.1.15,2013-05-30 12:37:00,
2013-05-30 05:42:00,49.7,42.4,29.75,NE,51,0.0,0.0,76,0.00,,,0.00,Wunderground v.1.15,2013-05-30 12:42:00,
2013-05-30 05:52:00,49.5,42.2,29.75,ESE,118,0.0,0.0,76,0.00,,,0.00,Wunderground v.1.15,2013-05-30 12:52:00,
2013-05-30 06:02:00,49.4,42.5,29.74,ENE,76,0.0,0.0,77,0.00,,,0.00,Wunderground v.1.15,2013-05-30 13:02:00,
2013-05-30 06:07:00,49.4,42.5,29.74,ENE,71,0.0,0.0,77,0.00,,,0.00,Wunderground v.1.15,2013-05-30 13:07:00,
2013-05-30 06:17:00,49.3,42.4,29.75,ENE,74,0.0,0.0,77,0.00,,,0.00,Wunderground v.1.15,2013-05-30 13:17:00,
2013-05-30 06:27:00,49.6,43.4,29.75,East,92,0.0,0.0,79,0.00,,,0.00,Wunderground v.1.15,2013-05-30 13:27:00,
2013-05-30 06:32:00,50.0,43.4,29.75,WSW,242,0.0,0.0,78,0.00,,,0.00,Wunderground v.1.15,2013-05-30 13:32:00,
2013-05-30 06:42:00,51.0,44.0,29.75,ESE,105,0.0,0.0,77,0.00,,,0.00,Wunderground v.1.15,2013-05-30 13:42:00,
2013-05-30 06:52:00,52.2,43.8,29.75,West,275,0.0,0.0,73,0.00,,,0.00,Wunderground v.1.15,2013-05-30 13:52:00,
2013-05-30 07:02:00,53.2,43.7,29.76,SW,234,0.0,1.0,70,0.00,,,0.00,Wunderground v.1.15,2013-05-30 14:02:00,
2013-05-30 07:12:00,54.2,44.2,29.76,WNW,289,0.0,0.0,69,0.00,,,0.00,Wunderground v.1.15,2013-05-30 14:12:00,
2013-05-30 07:22:00,55.1,44.7,29.75,West,279,0.0,0.0,68,0.00,,,0.00,Wunderground v.1.15,2013-05-30 14:22:00,
2013-05-30 07:32:00,56.0,44.4,29.76,SE,125,0.0,0.0,65,0.00,,,0.00,Wunderground v.1.15,2013-05-30 14:32:00,
2013-05-30 07:37:00,56.3,44.7,29.76,SE,125,0.0,0.0,65,0.00,,,0.00,Wunderground v.1.15,2013-05-30 14:37:00,
2013-05-30 07:47:00,57.2,45.1,29.76,North,5,0.0,0.0,64,0.00,,,0.00,Wunderground v.1.15,2013-05-30 14:47:00,
2013-05-30 07:57:00,58.1,44.7,29.78,ESE,113,0.0,2.0,61,0.00,,,0.00,Wunderground v.1.15,2013-05-30 14:57:00,
2013-05-30 08:02:00,58.3,44.9,29.77,East,95,0.0,0.0,61,0.00,,,0.00,Wunderground v.1.15,2013-05-30 15:02:00,
2013-05-30 08:12:00,59.0,45.6,29.78,North,5,0.0,0.0,61,0.00,,,0.00,Wunderground v.1.15,2013-05-30 15:12:00,
2013-05-30 08:22:00,59.6,45.2,29.78,SW,228,0.0,1.0,59,0.00,,,0.00,Wunderground v.1.15,2013-05-30 15:22:00,
2013-05-30 08:32:00,59.9,45.1,29.78,WNW,293,0.0,0.0,58,0.00,,,0.00,Wunderground v.1.15,2013-05-30 15:32:00,
2013-05-30 08:42:00,60.0,45.2,29.77,West,280,0.0,1.0,58,0.00,,,0.00,Wunderground v.1.15,2013-05-30 15:42:00,
2013-05-30 08:47:00,60.2,45.4,29.77,WNW,292,0.0,1.0,58,0.00,,,0.00,Wunderground v.1.15,2013-05-30 15:47:00,
2013-05-30 08:53:00,60.5,45.2,29.77,ENE,63,0.0,0.0,57,0.00,,,0.00,Wunderground v.1.15,2013-05-30 15:53:00,
2013-05-30 09:03:00,61.2,46.3,29.77,ESE,123,0.0,1.0,58,0.00,,,0.00,Wunderground v.1.15,2013-05-30 16:03:00,
2013-05-30 09:13:00,62.2,45.3,29.77,West,269,0.0,0.0,54,0.00,,,0.00,Wunderground v.1.15,2013-05-30 16:13:00,
2013-05-30 09:18:00,62.6,45.2,29.77,West,271,0.0,0.0,53,0.00,,,0.00,Wunderground v.1.15,2013-05-30 16:18:00,
2013-05-30 09:28:00,63.8,46.3,29.77,West,274,0.0,2.0,53,0.00,,,0.00,Wunderground v.1.15,2013-05-30 16:28:00,
2013-05-30 09:38:00,64.3,46.3,29.77,West,281,0.0,1.0,52,0.00,,,0.00,Wunderground v.1.15,2013-05-30 16:38:00,
2013-05-30 09:48:00,65.0,46.4,29.77,WNW,284,0.0,1.0,51,0.00,,,0.00,Wunderground v.1.15,2013-05-30 16:48:00,
2013-05-30 09:58:00,66.4,47.7,29.77,SE,126,0.0,0.0,51,0.00,,,0.00,Wunderground v.1.15,2013-05-30 16:58:00,
2013-05-30 10:03:00,67.2,47.4,29.77,SE,134,0.0,0.0,49,0.00,,,0.00,Wunderground v.1.15,2013-05-30 17:03:00,
2013-05-30 10:13:00,68.8,47.7,29.77,NNE,32,0.0,1.0,47,0.00,,,0.00,Wunderground v.1.15,2013-05-30 17:13:00,
2013-05-30 10:23:00,70.1,48.4,29.77,NE,56,1.0,1.0,46,0.00,,,0.00,Wunderground v.1.15,2013-05-30 17:23:00,
2013-05-30 10:33:00,71.2,48.2,29.77,ESE,104,1.0,1.0,44,0.00,,,0.00,Wunderground v.1.15,2013-05-30 17:33:00,
2013-05-30 10:38:00,71.6,47.9,29.77,NE,48,1.0,1.0,43,0.00,,,0.00,Wunderground v.1.15,2013-05-30 17:38:00,
2013-05-30 10:53:00,72.9,45.1,29.76,North,9,0.0,0.0,37,0.00,,,0.00,Wunderground v.1.15,2013-05-30 17:53:00,
2013-05-30 11:03:00,74.0,46.8,29.76,NW,313,1.0,1.0,38,0.00,,,0.00,Wunderground v.1.15,2013-05-30 18:03:00,
2013-05-30 11:12:00,74.8,48.2,29.77,WNW,298,1.0,1.0,39,0.00,,,0.00,Wunderground v.1.15,2013-05-30 18:12:00,
2013-05-30 11:23:00,75.6,48.2,29.76,ENE,64,1.0,1.0,38,0.00,,,0.00,Wunderground v.1.15,2013-05-30 18:23:00,
2013-05-30 11:32:00,76.7,48.5,29.77,SE,125,0.0,0.0,37,0.00,,,0.00,Wunderground v.1.15,2013-05-30 18:32:00,
2013-05-30 11:42:00,77.6,47.8,29.77,SW,236,0.0,2.0,35,0.00,,,0.00,Wunderground v.1.15,2013-05-30 18:42:00,
2013-05-30 11:52:00,78.7,48.7,29.76,NE,53,0.0,0.0,35,0.00,,,0.00,Wunderground v.1.15,2013-05-30 18:52:00,
2013-05-30 12:02:00,79.8,48.9,29.76,South,183,0.0,0.0,34,0.00,,,0.00,Wunderground v.1.15,2013-05-30 19:02:00,
2013-05-30 12:12:00,80.4,48.7,29.75,SW,223,1.0,1.0,33,0.00,,,0.00,Wunderground v.1.15,2013-05-30 19:12:00,
2013-05-30 12:17:00,80.5,47.9,29.76,ENE,67,1.0,1.0,32,0.00,,,0.00,Wunderground v.1.15,2013-05-30 19:17:00,
2013-05-30 12:27:00,81.4,47.9,29.75,NNE,26,0.0,0.0,31,0.00,,,0.00,Wunderground v.1.15,2013-05-30 19:27:00,
2013-05-30 12:37:00,82.1,48.5,29.75,NW,309,0.0,0.0,31,0.00,,,0.00,Wunderground v.1.15,2013-05-30 19:37:00,
2013-05-30 12:47:00,82.1,48.5,29.75,NNE,30,1.0,2.0,31,0.00,,,0.00,Wunderground v.1.15,2013-05-30 19:47:00,
2013-05-30 12:57:00,82.5,48.8,29.76,East,87,0.0,1.0,31,0.00,,,0.00,Wunderground v.1.15,2013-05-30 19:57:00,
2013-05-30 13:02:00,83.1,48.5,29.75,NE,42,0.0,1.0,30,0.00,,,0.00,Wunderground v.1.15,2013-05-30 20:02:00,
2013-05-30 13:12:00,83.9,49.1,29.75,East,86,0.0,0.0,30,0.00,,,0.00,Wunderground v.1.15,2013-05-30 20:12:00,
2013-05-30 13:22:00,84.3,48.6,29.75,South,182,0.0,0.0,29,0.00,,,0.00,Wunderground v.1.15,2013-05-30 20:22:00,
2013-05-30 13:27:00,84.7,48.9,29.75,NNW,345,0.0,0.0,29,0.00,,,0.00,Wunderground v.1.15,2013-05-30 20:27:00,
2013-05-30 13:37:00,85.0,49.2,29.75,West,275,1.0,1.0,29,0.00,,,0.00,Wunderground v.1.15,2013-05-30 20:37:00,
2013-05-30 13:47:00,85.7,48.8,29.75,ENE,68,0.0,3.0,28,0.00,,,0.00,Wunderground v.1.15,2013-05-30 20:47:00,
2013-05-30 13:57:00,85.8,48.0,29.74,NW,321,1.0,1.0,27,0.00,,,0.00,Wunderground v.1.15,2013-05-30 20:57:00,
2013-05-30 14:02:00,85.9,47.0,29.74,NW,315,0.0,0.0,26,0.00,,,0.00,Wunderground v.1.15,2013-05-30 21:02:00,
2013-05-30 14:07:00,86.0,48.1,29.74,West,265,0.0,1.0,27,0.00,,,0.00,Wunderground v.1.15,2013-05-30 21:07:00,
2013-05-30 14:17:00,85.6,45.7,29.74,East,92,1.0,1.0,25,0.00,,,0.00,Wunderground v.1.15,2013-05-30 21:17:00,
2013-05-30 14:27:00,85.9,49.0,29.74,SE,146,0.0,1.0,28,0.00,,,0.00,Wunderground v.1.15,2013-05-30 21:27:00,
2013-05-30 14:37:00,86.3,48.4,29.74,SSW,208,0.0,0.0,27,0.00,,,0.00,Wunderground v.1.15,2013-05-30 21:37:00,
2013-05-30 14:47:00,86.6,47.6,29.74,ENE,59,0.0,0.0,26,0.00,,,0.00,Wunderground v.1.15,2013-05-30 21:47:00,
2013-05-30 14:52:00,86.5,47.5,29.73,SSW,196,1.0,1.0,26,0.00,,,0.00,Wunderground v.1.15,2013-05-30 21:52:00,
2013-05-30 14:58:00,86.4,47.5,29.73,WSW,248,1.0,1.0,26,0.00,,,0.00,Wunderground v.1.15,2013-05-30 21:58:00,
2013-05-30 15:03:00,86.3,48.4,29.73,West,272,0.0,2.0,27,0.00,,,0.00,Wunderground v.1.15,2013-05-30 22:03:00,
2013-05-30 15:13:00,85.5,46.7,29.73,WNW,287,1.0,1.0,26,0.00,,,0.00,Wunderground v.1.15,2013-05-30 22:13:00,
2013-05-30 15:23:00,83.8,46.2,29.73,WSW,242,0.0,0.0,27,0.00,,,0.00,Wunderground v.1.15,2013-05-30 22:23:00,
2013-05-30 15:33:00,82.1,46.7,29.73,South,189,0.0,0.0,29,0.00,,,0.00,Wunderground v.1.15,2013-05-30 22:33:00,
2013-05-30 15:43:00,80.8,45.6,29.73,NE,55,0.0,2.0,29,0.00,,,0.00,Wunderground v.1.15,2013-05-30 22:43:00,
2013-05-30 15:53:00,79.8,44.7,29.73,West,260,0.0,0.0,29,0.00,,,0.00,Wunderground v.1.15,2013-05-30 22:53:00,
2013-05-30 16:03:00,79.1,45.0,29.73,ENE,67,0.0,3.0,30,0.00,,,0.00,Wunderground v.1.15,2013-05-30 23:03:00,
2013-05-30 16:08:00,78.7,43.8,29.73,West,274,0.0,3.0,29,0.00,,,0.00,Wunderground v.1.15,2013-05-30 23:08:00,
2013-05-30 16:18:00,78.2,43.3,29.72,WNW,296,0.0,0.0,29,0.00,,,0.00,Wunderground v.1.15,2013-05-30 23:18:00,
2013-05-30 16:28:00,77.7,43.8,29.72,WSW,239,0.0,1.0,30,0.00,,,0.00,Wunderground v.1.15,2013-05-30 23:28:00,
2013-05-30 16:38:00,77.3,43.4,29.72,SW,235,0.0,0.0,30,0.00,,,0.00,Wunderground v.1.15,2013-05-30 23:38:00,
2013-05-30 16:48:00,76.8,44.7,29.72,WSW,253,0.0,1.0,32,0.00,,,0.00,Wunderground v.1.15,2013-05-30 23:48:00,
2013-05-30 16:58:00,76.4,45.2,29.72,SSW,213,0.0,1.0,33,0.00,,,0.00,Wunderground v.1.15,2013-05-30 23:58:00,
2013-05-30 17:03:00,76.2,45.8,29.72,WNW,288,0.0,0.0,34,0.00,,,0.00,Wunderground v.1.15,2013-05-31 00:03:00,
2013-05-30 17:13:00,75.8,46.2,29.72,South,180,0.0,0.0,35,0.00,,,0.00,Wunderground v.1.15,2013-05-31 00:13:00,
2013-05-30 17:22:00,75.3,46.5,29.72,SW,225,0.0,0.0,36,0.00,,,0.00,Wunderground v.1.15,2013-05-31 00:22:00,
2013-05-30 17:32:00,74.8,46.1,29.72,WNW,282,0.0,0.0,36,0.00,,,0.00,Wunderground v.1.15,2013-05-31 00:32:00,
2013-05-30 17:37:00,74.6,46.6,29.72,SSW,206,0.0,1.0,37,0.00,,,0.00,Wunderground v.1.15,2013-05-31 00:37:00,
2013-05-30 17:47:00,73.9,45.3,29.72,WSW,250,1.0,2.0,36,0.00,,,0.00,Wunderground v.1.15,2013-05-31 00:47:00,
2013-05-30 17:57:00,73.3,44.7,29.73,ESE,116,1.0,3.0,36,0.00,,,0.00,Wunderground v.1.15,2013-05-31 00:57:00,
2013-05-30 18:03:00,73.1,44.5,29.73,ESE,116,0.0,0.0,36,0.00,,,0.00,Wunderground v.1.15,2013-05-31 01:03:00,
2013-05-30 18:12:00,72.6,44.1,29.73,WSW,252,0.0,0.0,36,0.00,,,0.00,Wunderground v.1.15,2013-05-31 01:12:00,
2013-05-30 18:17:00,72.4,44.6,29.73,ENE,59,0.0,0.0,37,0.00,,,0.00,Wunderground v.1.15,2013-05-31 01:17:00,
2013-05-30 18:27:00,72.0,44.3,29.73,East,96,0.0,0.0,37,0.00,,,0.00,Wunderground v.1.15,2013-05-31 01:27:00,
2013-05-30 18:37:00,71.7,44.7,29.73,West,271,0.0,0.0,38,0.00,,,0.00,Wunderground v.1.15,2013-05-31 01:37:00,
2013-05-30 18:47:00,71.3,44.4,29.73,WNW,282,0.0,0.0,38,0.00,,,0.00,Wunderground v.1.15,2013-05-31 01:47:00,
2013-05-30 18:57:00,71.1,45.5,29.73,East,86,0.0,0.0,40,0.00,,,0.00,Wunderground v.1.15,2013-05-31 01:57:00,
2013-05-30 19:02:00,70.8,45.3,29.74,NW,309,0.0,0.0,40,0.00,,,0.00,Wunderground v.1.15,2013-05-31 02:02:00,
2013-05-30 19:12:00,70.4,44.9,29.74,West,281,0.0,0.0,40,0.00,,,0.00,Wunderground v.1.15,2013-05-31 02:12:00,
2013-05-30 19:22:00,69.9,45.1,29.74,West,260,0.0,0.0,41,0.00,,,0.00,Wunderground v.1.15,2013-05-31 02:22:00,
2013-05-30 19:27:00,69.7,44.9,29.74,West,267,0.0,0.0,41,0.00,,,0.00,Wunderground v.1.15,2013-05-31 02:27:00,
2013-05-30 19:37:00,69.3,45.2,29.74,East,94,0.0,0.0,42,0.00,,,0.00,Wunderground v.1.15,2013-05-31 02:37:00,
2013-05-30 19:47:00,68.8,46.0,29.74,WNW,285,0.0,2.0,44,0.00,,,0.00,Wunderground v.1.15,2013-05-31 02:47:00,
2013-05-30 19:53:00,68.4,45.0,29.74,WNW,288,0.0,0.0,43,0.00,,,0.00,Wunderground v.1.15,2013-05-31 02:53:00,
2013-05-30 20:03:00,67.9,45.8,29.75,ENE,69,0.0,0.0,45,0.00,,,0.00,Wunderground v.1.15,2013-05-31 03:03:00,
2013-05-30 20:13:00,67.4,44.7,29.75,NNW,336,0.0,0.0,44,0.00,,,0.00,Wunderground v.1.15,2013-05-31 03:13:00,
2013-05-30 20:23:00,66.7,44.7,29.75,NW,319,0.0,0.0,45,0.00,,,0.00,Wunderground v.1.15,2013-05-31 03:23:00,
2013-05-30 20:33:00,66.0,44.0,29.75,WNW,300,0.0,0.0,45,0.00,,,0.00,Wunderground v.1.15,2013-05-31 03:33:00,
2013-05-30 20:43:00,65.4,44.1,29.75,WNW,298,0.0,0.0,46,0.00,,,0.00,Wunderground v.1.15,2013-05-31 03:43:00,
2013-05-30 20:53:00,64.9,44.2,29.75,WNW,296,0.0,1.0,47,0.00,,,0.00,Wunderground v.1.15,2013-05-31 03:53:00,
2013-05-30 20:58:00,64.7,44.0,29.75,NW,319,0.0,1.0,47,0.00,,,0.00,Wunderground v.1.15,2013-05-31 03:58:00,
2013-05-30 21:03:00,64.4,43.7,29.76,NW,319,0.0,0.0,47,0.00,,,0.00,Wunderground v.1.15,2013-05-31 04:03:00,
2013-05-30 21:13:00,63.9,43.8,29.76,WNW,302,0.0,0.0,48,0.00,,,0.00,Wunderground v.1.15,2013-05-31 04:13:00,
2013-05-30 21:18:00,63.6,43.5,29.76,West,281,0.0,0.0,48,0.00,,,0.00,Wunderground v.1.15,2013-05-31 04:18:00,
2013-05-30 21:28:00,63.2,43.7,29.77,West,264,0.0,1.0,49,0.00,,,0.00,Wunderground v.1.15,2013-05-31 04:28:00,
2013-05-30 21:38:00,62.7,43.3,29.78,West,281,0.0,0.0,49,0.00,,,0.00,Wunderground v.1.15,2013-05-31 04:38:00,
2013-05-30 21:48:00,62.2,43.3,29.77,West,266,0.0,0.0,50,0.00,,,0.00,Wunderground v.1.15,2013-05-31 04:48:00,
2013-05-30 21:52:00,62.0,43.1,29.77,WSW,249,0.0,0.0,50,0.00,,,0.00,Wunderground v.1.15,2013-05-31 04:52:00,
2013-05-30 21:58:00,61.8,43.5,29.77,South,184,0.0,0.0,51,0.00,,,0.00,Wunderground v.1.15,2013-05-31 04:58:00,
2013-05-30 22:03:00,61.5,43.2,29.77,ENE,71,0.0,0.0,51,0.00,,,0.00,Wunderground v.1.15,2013-05-31 05:03:00,
2013-05-30 22:12:00,61.1,43.3,29.77,ENE,69,0.0,0.0,52,0.00,,,0.00,Wunderground v.1.15,2013-05-31 05:12:00,
2013-05-30 22:23:00,60.7,43.5,29.77,ENE,69,0.0,0.0,53,0.00,,,0.00,Wunderground v.1.15,2013-05-31 05:23:00,
2013-05-30 22:32:00,60.2,43.0,29.78,East,86,0.0,0.0,53,0.00,,,0.00,Wunderground v.1.15,2013-05-31 05:32:00,
2013-05-30 22:43:00,59.8,42.6,29.79,NNW,343,0.0,0.0,53,0.00,,,0.00,Wunderground v.1.15,2013-05-31 05:43:00,
2013-05-30 22:52:00,59.5,42.8,29.79,North,5,0.0,0.0,54,0.00,,,0.00,Wunderground v.1.15,2013-05-31 05:52:00,
2013-05-30 23:03:00,59.2,43.0,29.79,NW,325,0.0,0.0,55,0.00,,,0.00,Wunderground v.1.15,2013-05-31 06:03:00,
2013-05-30 23:12:00,59.0,42.8,29.78,NW,314,0.0,0.0,55,0.00,,,0.00,Wunderground v.1.15,2013-05-31 06:12:00,
2013-05-30 23:22:00,59.0,43.3,29.78,NW,315,0.0,0.0,56,0.00,,,0.00,Wunderground v.1.15,2013-05-31 06:22:00,
2013-05-30 23:27:00,58.7,43.0,29.79,SW,229,0.0,0.0,56,0.00,,,0.00,Wunderground v.1.15,2013-05-31 06:27:00,
2013-05-30 23:37:00,58.4,43.2,29.78,SW,232,0.0,0.0,57,0.00,,,0.00,Wunderground v.1.15,2013-05-31 06:37:00,
2013-05-30 23:47:00,58.2,43.5,29.78,ESE,111,0.0,0.0,58,0.00,,,0.00,Wunderground v.1.15,2013-05-31 06:47:00,
2013-05-30 23:52:00,58.2,43.5,29.78,East,84,0.0,0.0,58,0.00,,,0.00,Wunderground v.1.15,2013-05-31 06:52:00,